Weather History for YWLM - November, 2013

Change the Weather History Date:

Friday, November 22, 2013

  Actual Average Record
Temperature  
Mean Temperature 72 °F -  
Max Temperature 77 °F - - ()
Min Temperature 66 °F - - ()
Cooling Degree Days 6    
Growing Degree Days 22 (Base 50)    
Moisture  
Dew Point 63 °F    
Average Humidity 78    
Maximum Humidity 94    
Minimum Humidity 63    
Precipitation  
Precipitation 0.12 in - - ()
Sea Level Pressure  
Sea Level Pressure 29.78 in    
Wind  
Wind Speed 12 mph ()    
Max Wind Speed 20 mph    
Max Gust Speed 32 mph    
Visibility 6.1 miles    
Events Rain , Thunderstorm    
T = Trace of Precipitation, MM = Missing Value Source: Averaged Metar Reports

Daily Weather History Graph

Daily Weather History Graph

Search for Another Location

Airport or City:

Trip Planner

Search our weather history database for the weather conditions in past years. The results will help you decide how hot, cold, wet, or windy it might be!

Date:

Astronomy

Nov. 22, 2013 Rise Set
Actual Time 5:39 AM AEDT 7:37 PM AEDT
Civil Twilight 5:12 AM AEDT 8:05 PM AEDT
Nautical Twilight 4:39 AM AEDT 8:38 PM AEDT
Astronomical Twilight 4:03 AM AEDT 9:14 PM AEDT
Moon 11:10 PM AEDT (11/22) 9:13 AM AEDT (11/22)
Length of Visible Light 14h 53m
Length of Day
13h 58m
Waning Gibbous, 83% of the Moon is Illuminated
Nov 22
Waning Gibbous
Nov 26
Last Quarter
Dec 3
New
Dec 10
First Quarter
Dec 17
Full

Hourly Weather History & Observations

Time (AEDT) Temp. Dew Point Humidity Pressure Visibility Wind Dir Wind Speed Gust Speed Precip Events Conditions
12:00 AM 70 °F 62 °F 69% 29.84 in - NE 16.1 mph - -  
12:00 AM 69.8 °F 62.6 °F 78% 29.83 in 6.2 mi NE 16.1 mph - N/A   Unknown
12:30 AM 69.8 °F 60.8 °F 73% 29.80 in 6.2 mi NE 17.3 mph - N/A   Unknown
1:00 AM 69.8 °F 60.8 °F 73% 29.77 in 6.2 mi NE 15.0 mph - N/A   Unknown
1:30 AM 69.8 °F 62.6 °F 78% 29.77 in 6.2 mi NE 13.8 mph - N/A   Unknown
2:00 AM 69 °F 61 °F 69% 29.76 in - NE 11.5 mph - -  
2:00 AM 69.8 °F 60.8 °F 73% 29.74 in 6.2 mi NE 11.5 mph - N/A   Unknown
2:30 AM 69.8 °F 60.8 °F 73% 29.74 in 6.2 mi NE 13.8 mph - N/A   Unknown
3:00 AM 69 °F 60 °F 65% 29.75 in - NE 12.7 mph - -  
3:00 AM 69.8 °F 59.0 °F 68% 29.74 in 6.2 mi NE 12.7 mph - N/A   Unknown
3:30 AM 69.8 °F 59.0 °F 68% 29.80 in 6.2 mi North 5.8 mph - N/A Rain Light Rain
4:00 AM 68.0 °F 62.6 °F 83% 29.83 in 6.2 mi South 6.9 mph - N/A Rain Light Rain Showers
4:25 AM 68.0 °F 60.8 °F 78% 29.77 in 6.2 mi East 17.3 mph - N/A Rain Light Rain Showers
4:30 AM 68.0 °F 60.8 °F 78% 29.74 in 6.2 mi East 17.3 mph - N/A Rain Light Rain Showers
4:40 AM 68.0 °F 60.8 °F 78% 29.74 in 6.2 mi ENE 17.3 mph 28.8 mph N/A Rain Light Rain Showers
4:57 AM 68.0 °F 60.8 °F 78% 29.80 in 6.2 mi SW 5.8 mph - N/A Rain Light Rain Showers
5:00 AM 68 °F 61 °F 73% 29.81 in - ENE 5.8 mph - -  
5:00 AM 68.0 °F 60.8 °F 78% 29.80 in 6.2 mi ENE 5.8 mph - N/A   Unknown
5:30 AM 68.0 °F 60.8 °F 78% 29.83 in 6.2 mi ENE 8.1 mph - N/A Rain Light Rain Showers
6:00 AM 68 °F 62 °F 76% 29.83 in - East 10.4 mph - -  
6:00 AM 68.0 °F 62.6 °F 83% 29.83 in 6.2 mi East 10.4 mph - N/A Rain Light Rain
6:30 AM 68.0 °F 62.6 °F 83% 29.80 in 6.2 mi ENE 9.2 mph - N/A   Scattered Clouds
7:00 AM 69.8 °F 62.6 °F 78% 29.86 in 6.2 mi ENE 2.3 mph - N/A   Mostly Cloudy
7:13 AM 68.0 °F 62.6 °F 83% 29.83 in 1.2 mi ENE 6.9 mph - N/A Rain Light Rain Showers
7:22 AM 68.0 °F 62.6 °F 83% 29.83 in 6.2 mi ENE 8.1 mph - N/A Rain Light Rain Showers
7:30 AM 68.0 °F 62.6 °F 83% 29.83 in - ENE 9.2 mph - N/A   Clear
8:00 AM 68 °F 63 °F 78% 29.83 in - ENE 8.1 mph - -  
8:00 AM 68.0 °F 62.6 °F 83% 29.83 in 6.2 mi ENE 8.1 mph - N/A   Mostly Cloudy
8:30 AM 69.8 °F 60.8 °F 73% 29.83 in 6.2 mi NE 11.5 mph - N/A Thunderstorm Mostly Cloudy
8:43 AM 69.8 °F 62.6 °F 78% 29.80 in 6.2 mi NE 13.8 mph - N/A Rain Light Rain Showers
9:00 AM 70 °F 61 °F 67% 29.80 in - NE 17.3 mph - -  
9:00 AM 69.8 °F 60.8 °F 73% 29.77 in 6.2 mi NE 17.3 mph - N/A Rain Light Rain Showers
9:30 AM 69.8 °F 62.6 °F 78% 29.83 in 6.2 mi WSW 16.1 mph - N/A Rain , Thunderstorm Light Thunderstorms and Rain
10:00 AM 69.8 °F 60.8 °F 73% 29.83 in 6.2 mi SSE 10.4 mph - N/A Thunderstorm Mostly Cloudy
10:30 AM 71.6 °F 60.8 °F 69% 29.83 in 6.2 mi East 11.5 mph - N/A   Mostly Cloudy
11:00 AM 69 °F 65 °F 82% 29.84 in - East 15.0 mph - -  
11:00 AM 69.8 °F 64.4 °F 83% 29.83 in 6.2 mi East 15.0 mph - N/A   Mostly Cloudy
11:30 AM 71.6 °F 64.4 °F 78% 29.80 in - East 18.4 mph - N/A   Clear
12:00 PM 70 °F 64 °F 76% 29.82 in - East 16.1 mph - -  
12:00 PM 69.8 °F 64.4 °F 83% 29.80 in 6.2 mi ENE 16.1 mph - N/A Rain Light Rain Showers
12:30 PM 71.6 °F 64.4 °F 78% 29.80 in 6.2 mi ENE 15.0 mph - N/A   Partly Cloudy
12:56 PM 71.6 °F 66.2 °F 83% 29.80 in 6.2 mi ENE 17.3 mph 29.9 mph N/A   Scattered Clouds
1:30 PM 75.2 °F 64.4 °F 69% 29.77 in 6.2 mi ENE 17.3 mph - N/A   Mostly Cloudy
1:38 PM 77.0 °F 66.2 °F 69% 29.77 in 6.2 mi ENE 19.6 mph 31.1 mph N/A   Mostly Cloudy
2:00 PM 75 °F 65 °F 63% 29.77 in - ENE 19.6 mph - -  
2:00 PM 75.2 °F 64.4 °F 69% 29.77 in 6.2 mi ENE 19.6 mph 32.2 mph N/A   Mostly Cloudy
2:30 PM 73.4 °F 64.4 °F 73% 29.77 in 6.2 mi NE 17.3 mph - N/A   Mostly Cloudy
3:00 PM 72 °F 64 °F 71% 29.78 in - ENE 15.0 mph - -  
3:00 PM 73.4 °F 64.4 °F 73% 29.77 in 6.2 mi ENE 15.0 mph - N/A Rain Light Rain Showers
3:30 PM 71.6 °F 62.6 °F 73% 29.74 in 6.2 mi NE 17.3 mph - N/A   Mostly Cloudy
3:50 PM 71.6 °F 62.6 °F 73% 29.74 in 6.2 mi NE 17.3 mph 29.9 mph N/A   Unknown
4:00 PM 71.6 °F 62.6 °F 73% 29.71 in 6.2 mi NE 18.4 mph 29.9 mph N/A Rain Light Rain Showers
4:30 PM 71.6 °F 62.6 °F 73% 29.71 in 6.2 mi NE 17.3 mph - N/A Rain Light Rain Showers
5:00 PM 70 °F 63 °F 73% 29.76 in - NNE 13.8 mph - -  
5:00 PM 69.8 °F 62.6 °F 78% 29.74 in 6.2 mi NNE 13.8 mph - N/A Rain Light Rain Showers
5:30 PM 68.0 °F 64.4 °F 88% 29.74 in 6.2 mi NNE 10.4 mph - N/A Rain Light Rain Showers
6:00 PM 68 °F 65 °F 87% 29.76 in - North 10.4 mph - -   Overcast
6:00 PM 68.0 °F 64.4 °F 88% 29.74 in 6.2 mi North 10.4 mph - N/A Rain Rain Showers
6:30 PM 68.0 °F 64.4 °F 88% 29.74 in 6.2 mi North 11.5 mph - N/A Rain Light Rain Showers
7:00 PM 68.0 °F 64.4 °F 88% 29.71 in 6.2 mi North 12.7 mph - N/A Rain Light Rain Showers
7:30 PM 68.0 °F 64.4 °F 88% 29.71 in 6.2 mi NNE 12.7 mph - N/A   Mostly Cloudy
8:00 PM 67 °F 63 °F 84% 29.73 in - NNE 10.4 mph - -  
8:00 PM 68.0 °F 62.6 °F 83% 29.71 in 6.2 mi NNE 10.4 mph - N/A   Scattered Clouds
8:30 PM 68.0 °F 62.6 °F 83% 29.74 in 6.2 mi NNW 6.9 mph - N/A   Overcast
9:00 PM 68 °F 64 °F 81% 29.80 in - WSW 6.9 mph - -   Overcast
9:00 PM 68.0 °F 64.4 °F 88% 29.77 in 6.2 mi WSW 6.9 mph - N/A   Overcast
9:30 PM 68.0 °F 64.4 °F 88% 29.80 in 6.2 mi South 5.8 mph - N/A Rain Light Rain Showers
10:00 PM 68.0 °F 64.4 °F 88% 29.77 in 6.2 mi East 8.1 mph - N/A Rain Light Rain Showers
10:30 PM 66.2 °F 64.4 °F 94% 29.77 in 6.2 mi NE 12.7 mph - N/A Rain Light Rain Showers
11:00 PM 67 °F 64 °F 88% 29.76 in - NE 11.5 mph - -  
11:00 PM 66.2 °F 64.4 °F 94% 29.74 in 6.2 mi NE 11.5 mph - N/A Rain Light Rain Showers
11:30 PM 68.0 °F 64.4 °F 88% 29.74 in 6.2 mi NNE 9.2 mph - N/A   Scattered Clouds